Location: Unspecified
(49.8670°N, 0.0000°E)
Time: 13:25:58
(UTC+00:00)

Vanguard 1 - Pass Details

Date: 23 June 2019
Orbit: 653 x 3830 km, 34.3° (Epoch: 17 July)

Event Time Altitude Azimuth Distance (km) Brightness Sun altitude
Exits shadow 03:45:08 - 243° (WSW) 7,362 13.9 -1.7°
Rises 03:45:10 0° 243° (WSW) 7,353 13.9 -1.6°
Reaches altitude 10° 03:51:12 10° 236° (WSW) 5,895 13.4 -0.9°
Maximum altitude 04:05:08 36° 180° (S) 2,941 12.2 0.9°
Drops below altitude 10° 04:13:29 10° 117° (ESE) 3,533 13.3 2.0°
Sets 04:16:07 0° 108° (ESE) 4,188 13.9 2.3°
